Weather History for Worthington, MN

Change the Weather History Date:

Tuesday, February 5, 2013

  Actual Average Record
Temperature  
Mean Temperature 26 °F -  
Max Temperature 35 °F 26 °F 55 °F (2005)
Min Temperature 17 °F 10 °F -22 °F (1988)
Degree Days  
Heating Degree Days 39    
Moisture  
Dew Point 19 °F    
Average Humidity 74    
Maximum Humidity 86    
Minimum Humidity 65    
Precipitation  
Precipitation 0.00 in - - ()
Sea Level Pressure  
Sea Level Pressure 29.87 in    
Wind  
Wind Speed 15 mph (WNW)    
Max Wind Speed 26 mph    
Max Gust Speed 30 mph    
Visibility 10 miles    
Events      
Averages and records for this station are not official NWS values.
T = Trace of Precipitation, MM = Missing Value Source: NWS Daily Summary

Daily Weather History Graph

Daily Weather History Graph

Search for Another Location

Airport:

Trip Planner

Search our weather history database for the weather conditions in past years. The results will help you decide how hot, cold, wet, or windy it might be!

Date:

Astronomy

Feb. 05, 2013 Rise Set
Actual Time 7:33 AM CST 5:39 PM CST
Civil Twilight 7:03 AM CST 6:09 PM CST
Nautical Twilight 6:29 AM CST 6:43 PM CST
Astronomical Twilight 5:56 AM CST 7:17 PM CST
Moon 3:20 AM CST (2/5) 12:54 PM CST (2/5)
Length of Visible Light 11h 05m
Length of Day
10h 05m
Waning Crescent, 26% of the Moon is Illuminated
Feb 5
Waning Crescent
Feb 10
New
Feb 17
First Quarter
Feb 25
Full
Mar 4
Last Quarter

Hourly Weather History & Observations

Time (CST) Temp. Windchill Dew Point Humidity Pressure Visibility Wind Dir Wind Speed Gust Speed Precip Events Conditions
12:15 AM 21.2 °F 5.6 °F 15.8 °F 80% 29.71 in 10.0 mi SSW 20.7 mph 28.8 mph N/A   Clear
12:35 AM 21.2 °F 3.9 °F 15.8 °F 80% 29.69 in 10.0 mi SSW 26.5 mph 29.9 mph N/A   Clear
12:55 AM 23.0 °F 7.2 °F 15.8 °F 74% 29.70 in 10.0 mi SW 23.0 mph 29.9 mph N/A   Partly Cloudy
1:15 AM 23.0 °F 8.7 °F 15.8 °F 74% 29.70 in 10.0 mi SW 18.4 mph 27.6 mph N/A   Mostly Cloudy
1:35 AM 23.0 °F 8.3 °F 15.8 °F 74% 29.70 in 10.0 mi SW 19.6 mph 25.3 mph N/A   Scattered Clouds
1:55 AM 23.0 °F 8.0 °F 15.8 °F 74% 29.69 in 10.0 mi SW 20.7 mph - N/A   Clear
2:15 AM 23.0 °F 8.3 °F 15.8 °F 74% 29.70 in 10.0 mi SW 19.6 mph 23.0 mph N/A   Clear
2:35 AM 24.8 °F 12.4 °F 17.6 °F 74% 29.70 in 10.0 mi SW 15.0 mph - N/A   Clear
2:55 AM 24.8 °F 14.6 °F 17.6 °F 74% 29.70 in 10.0 mi WSW 10.4 mph - N/A   Clear
3:15 AM 24.8 °F 14.0 °F 17.6 °F 74% 29.69 in 10.0 mi SW 11.5 mph - N/A   Mostly Cloudy
3:35 AM 24.8 °F 16.1 °F 17.6 °F 74% 29.68 in 10.0 mi SW 8.1 mph - N/A   Mostly Cloudy
3:55 AM 26.6 °F 14.7 °F 19.4 °F 74% 29.67 in 10.0 mi SW 15.0 mph - N/A   Partly Cloudy
4:15 AM 26.6 °F 13.8 °F 17.6 °F 69% 29.67 in 10.0 mi SW 17.3 mph - N/A   Mostly Cloudy
4:35 AM 26.6 °F 14.7 °F 17.6 °F 69% 29.69 in 10.0 mi WSW 15.0 mph 24.2 mph N/A   Overcast
4:55 AM 26.6 °F 15.7 °F 19.4 °F 74% 29.69 in 10.0 mi WSW 12.7 mph - N/A   Scattered Clouds
5:15 AM 26.6 °F 15.2 °F 19.4 °F 74% 29.70 in 10.0 mi WSW 13.8 mph - N/A   Scattered Clouds
5:35 AM 26.6 °F 15.2 °F 19.4 °F 74% 29.70 in 10.0 mi West 13.8 mph - N/A   Mostly Cloudy
5:55 AM 26.6 °F 15.7 °F 19.4 °F 74% 29.70 in 10.0 mi WSW 12.7 mph - N/A   Mostly Cloudy
6:15 AM 24.8 °F 13.4 °F 17.6 °F 74% 29.71 in 10.0 mi West 12.7 mph - N/A   Scattered Clouds
6:35 AM 24.8 °F 14.6 °F 17.6 °F 74% 29.71 in 10.0 mi West 10.4 mph - N/A   Partly Cloudy
6:55 AM 24.8 °F 14.6 °F 17.6 °F 74% 29.72 in 10.0 mi WSW 10.4 mph - N/A   Clear
7:15 AM 24.8 °F 13.4 °F 17.6 °F 74% 29.74 in 10.0 mi West 12.7 mph - N/A   Clear
7:35 AM 24.8 °F 15.3 °F 17.6 °F 74% 29.73 in 10.0 mi West 9.2 mph - N/A   Clear
7:55 AM 23.0 °F 12.4 °F 15.8 °F 74% 29.76 in 10.0 mi West 10.4 mph - N/A   Partly Cloudy
8:15 AM 28.4 °F 17.0 °F 21.2 °F 74% 29.77 in 10.0 mi WNW 15.0 mph 20.7 mph N/A   Mostly Cloudy
8:35 AM 28.4 °F 17.0 °F 21.2 °F 74% 29.78 in 10.0 mi WNW 15.0 mph - N/A   Overcast
8:55 AM 28.4 °F 18.0 °F 21.2 °F 74% 29.80 in 10.0 mi WNW 12.7 mph - N/A   Mostly Cloudy
9:15 AM 30.2 °F 19.3 °F 23.0 °F 75% 29.81 in 10.0 mi WNW 15.0 mph 19.6 mph N/A   Overcast
9:35 AM 32.0 °F 21.6 °F 24.8 °F 75% 29.82 in 10.0 mi WNW 15.0 mph - N/A   Mostly Cloudy
9:55 AM 32.0 °F 20.8 °F 24.8 °F 75% 29.84 in 10.0 mi NW 17.3 mph 20.7 mph N/A   Mostly Cloudy
10:15 AM 33.8 °F 23.2 °F 24.8 °F 70% 29.84 in 10.0 mi NW 17.3 mph 21.9 mph N/A   Overcast
10:35 AM 33.8 °F 22.8 °F 24.8 °F 70% 29.86 in 10.0 mi NW 18.4 mph - N/A   Overcast
10:55 AM 33.8 °F 21.9 °F 24.8 °F 70% 29.88 in 10.0 mi NNW 21.9 mph 26.5 mph N/A   Overcast
11:15 AM 33.8 °F 22.8 °F 24.8 °F 70% 29.89 in 10.0 mi NW 18.4 mph 23.0 mph N/A   Overcast
11:35 AM 35.6 °F 25.5 °F 24.8 °F 65% 29.90 in 10.0 mi NW 17.3 mph - N/A   Overcast
11:55 AM 35.6 °F 27.1 °F 24.8 °F 65% 29.90 in 10.0 mi NW 12.7 mph 18.4 mph N/A   Mostly Cloudy
12:15 PM 35.6 °F 25.2 °F 24.8 °F 65% 29.91 in 10.0 mi NW 18.4 mph - N/A   Overcast
12:35 PM 35.6 °F 25.2 °F 24.8 °F 65% 29.91 in 10.0 mi NW 18.4 mph - N/A   Overcast
12:55 PM 35.6 °F 26.2 °F 24.8 °F 65% 29.91 in 10.0 mi WNW 15.0 mph 23.0 mph N/A   Overcast
1:15 PM 35.6 °F 26.2 °F 24.8 °F 65% 29.92 in 10.0 mi NW 15.0 mph - N/A   Overcast
1:35 PM 32.0 °F 22.5 °F 24.8 °F 75% 29.93 in 5.0 mi North 12.7 mph 16.1 mph N/A   Overcast
1:55 PM 30.2 °F 18.5 °F 23.0 °F 75% 29.95 in 3.0 mi North 17.3 mph - N/A   Overcast
2:15 PM 28.4 °F 17.5 °F 23.0 °F 80% 29.95 in 4.0 mi NNW 13.8 mph - N/A   Overcast
2:35 PM 28.4 °F 17.5 °F 23.0 °F 80% 29.95 in 3.0 mi NNW 13.8 mph - N/A   Overcast
2:55 PM 30.2 °F 21.3 °F 23.0 °F 75% 29.96 in 5.0 mi NNW 10.4 mph - N/A   Overcast
3:15 PM 30.2 °F 19.3 °F 23.0 °F 75% 29.97 in 7.0 mi NW 15.0 mph 18.4 mph N/A   Overcast
3:35 PM 30.2 °F 19.3 °F 21.2 °F 69% 29.97 in 10.0 mi NW 15.0 mph - N/A   Overcast
3:55 PM 30.2 °F 19.8 °F 21.2 °F 69% 29.98 in 10.0 mi NW 13.8 mph - N/A   Overcast
4:15 PM 30.2 °F 18.5 °F 21.2 °F 69% 29.97 in 10.0 mi NW 17.3 mph 21.9 mph N/A   Mostly Cloudy
4:35 PM 30.2 °F 20.8 °F 21.2 °F 69% 29.98 in 10.0 mi NW 11.5 mph - N/A   Mostly Cloudy
4:55 PM 30.2 °F 22.6 °F 21.2 °F 69% 29.98 in 10.0 mi NW 8.1 mph - N/A   Mostly Cloudy
5:15 PM 28.4 °F 19.7 °F 21.2 °F 74% 29.99 in 10.0 mi NNW 9.2 mph - N/A   Scattered Clouds
5:35 PM 28.4 °F 23.3 °F 21.2 °F 74% 29.99 in 10.0 mi North 4.6 mph - N/A   Partly Cloudy
5:55 PM 26.6 °F 19.1 °F 19.4 °F 74% 30.00 in 10.0 mi North 6.9 mph - N/A   Partly Cloudy
6:15 PM 24.8 °F 16.9 °F 17.6 °F 74% 30.00 in 10.0 mi North 6.9 mph - N/A   Clear
6:35 PM 24.8 °F 16.9 °F 17.6 °F 74% 30.00 in 10.0 mi North 6.9 mph - N/A   Partly Cloudy
6:55 PM 23.0 °F 15.8 °F 17.6 °F 80% 30.01 in 10.0 mi North 5.8 mph - N/A   Clear
7:15 PM 23.0 °F - 15.8 °F 74% 30.02 in 10.0 mi Calm Calm - N/A   Clear
7:35 PM 21.2 °F 16.4 °F 17.6 °F 86% 30.03 in 10.0 mi NW 3.5 mph - N/A   Clear
7:55 PM 21.2 °F - 15.8 °F 80% 30.03 in 10.0 mi Calm Calm - N/A   Clear
8:15 PM 21.2 °F - 15.8 °F 80% 30.03 in 10.0 mi Calm Calm - N/A   Clear
8:35 PM 19.4 °F - 15.8 °F 86% 30.03 in 10.0 mi Calm Calm - N/A   Clear
8:55 PM 21.2 °F 16.4 °F 15.8 °F 80% 30.03 in 10.0 mi ESE 3.5 mph - N/A   Clear
9:15 PM 19.4 °F - 14.0 °F 80% 30.03 in 10.0 mi Calm Calm - N/A   Clear
9:35 PM 19.4 °F - 14.0 °F 80% 30.04 in 10.0 mi Calm Calm - N/A   Clear
9:55 PM 19.4 °F - 12.2 °F 74% 30.04 in 10.0 mi Calm Calm - N/A   Clear
10:15 PM 19.4 °F 14.3 °F 12.2 °F 74% 30.05 in 10.0 mi SE 3.5 mph - N/A   Clear
10:35 PM 17.6 °F 10.7 °F 12.2 °F 79% 30.05 in 10.0 mi ESE 4.6 mph - N/A   Clear
10:55 PM 17.6 °F 9.3 °F 12.2 °F 79% 30.05 in 10.0 mi ESE 5.8 mph - N/A   Clear
11:15 PM 17.6 °F 9.3 °F 12.2 °F 79% 30.04 in 10.0 mi ESE 5.8 mph - N/A   Clear
11:35 PM 17.6 °F 12.3 °F 12.2 °F 79% 30.04 in 10.0 mi SE 3.5 mph - N/A   Clear
11:55 PM 17.6 °F 9.3 °F 10.4 °F 73% 30.03 in 10.0 mi SSE 5.8 mph - N/A   Clear